This is the latest recevied weather packets stored in our database for station/object AD7ZD. If no packets are shown the sender has not sent any weather packets the latest 10 day(s).
| Time | Temp. | Humidity | Pressure | Rain* | Wind** | Luminosity | Snow |
|---|---|---|---|---|---|---|---|
| 1777591833 | 21.11° C | 20% | 1012.9 hPa | 0 mm | - | 428 W/m² | - |
| 1777591528 | 20.56° C | 21% | 1013 hPa | 0 mm | - | 296 W/m² | - |
| 1777591225 | 20.56° C | 20% | 1013 hPa | 0 mm | - | 472 W/m² | - |
| 1777590920 | 20.56° C | 20% | 1013 hPa | 0 mm | - | 393 W/m² | - |
| 1777590616 | 20.56° C | 20% | 1013.3 hPa | 0 mm | - | 363 W/m² | - |
| 1777590312 | 20.56° C | 20% | 1013.4 hPa | 0 mm | - | 295 W/m² | - |
| 1777590010 | 20.56° C | 21% | 1013 hPa | 0 mm | - | 398 W/m² | - |
| 1777589705 | 20.56° C | 22% | 1013.1 hPa | 0 mm | - | 367 W/m² | - |
| 1777589404 | 20.56° C | 19% | 1013.3 hPa | 0 mm | - | 378 W/m² | - |
| 1777589100 | 21.11° C | 19% | 1013.3 hPa | 0 mm | - | 399 W/m² | - |
| 1777588796 | 20.56° C | 21% | 1013.5 hPa | 0 mm | - | 514 W/m² | - |
| 1777588492 | 21.11° C | 19% | 1013.5 hPa | 0 mm | - | 619 W/m² | - |
| 1777588187 | 21.67° C | 19% | 1013.3 hPa | 0 mm | - | 612 W/m² | - |
| 1777587883 | 20.56° C | 19% | 1013.5 hPa | 0 mm | - | 477 W/m² | - |
| 1777587579 | 21.11° C | 20% | 1013.5 hPa | 0 mm | - | 445 W/m² | - |
| 1777587274 | 21.11° C | 19% | 1013.6 hPa | 0 mm | - | 561 W/m² | - |
| 1777586970 | 21.11° C | 19% | 1013.6 hPa | 0 mm | - | 475 W/m² | - |
| 1777586666 | 21.11° C | 19% | 1013.9 hPa | 0 mm | - | 543 W/m² | - |
| 1777586361 | 21.11° C | 19% | 1013.9 hPa | 0 mm | - | 579 W/m² | - |
| 1777586061 | 21.11° C | 19% | 1013.9 hPa | 0 mm | - | 711 W/m² | - |
| 1777585759 | 21.11° C | 19% | 1014.1 hPa | 0 mm | - | 676 W/m² | - |
| 1777585453 | 20.56° C | 19% | 1014.3 hPa | 0 mm | - | 723 W/m² | - |
| 1777585150 | 20.56° C | 19% | 1014.2 hPa | 0 mm | - | 724 W/m² | - |
| 1777584846 | 21.11° C | 19% | 1014.4 hPa | 0 mm | - | 646 W/m² | - |
| 1777584544 | 20.56° C | 20% | 1014.1 hPa | 0 mm | - | 741 W/m² | - |
* Rain latest hour (hover to see other rain measurements)
** Current wind speed in m/s (hover to see current wind gust speed)